Effective Sunday, March 17, 2024, the National Weather Service National Data Buoy Center will discontinue its Dial-A-Buoy Interactive Voice Response system. For more information, see Service Change Notice 24-06 (PDF).

Station EROA2 - Eldred Rock, AK Image indicating link to RSS feed of recent meteorological observations for station EROA2


Conditions at EROA2 as of
(3:24 pm AKST on 03/02/2024)
0024 GMT on 03/03/2024:
     

Click on the graph icon in the table below to see a time series plot of the last five days of that observation.

5-day plot - Wind Direction Wind Direction (WDIR): N ( 350 deg true )
5-day plot - Wind Speed Wind Speed (WSPD): 38.1 kts
5-day plot - Wind Gust Wind Gust (GST): 51.1 kts
5-day plot - Atmospheric Pressure Atmospheric Pressure (PRES):30.01 in
5-day plot - Air Temperature Air Temperature (ATMP): 18.3 °F
5-day plot - Dew Point Dew Point (DEWP): -0.4 °F
5-day plot - Wind Chill Wind Chill (CHILL): -4.0 °F
5-day plot - Wind Speed at 10 Meters Wind Speed at 10 meters (WSPD10M): 40.8 kts
5-day plot - Wind Speed at 20 Meters Wind Speed at 20 meters (WSPD20M): 44.7 kts
5-day plot -  Wind Speed, Wind Gust and Atmospheric Pressure Combined plot of Wind Speed, Gust, and Air Pressure
Previous observations
TIME
(AKST)
5-day plot - Wind Direction
WDIR
 
5-day plot - Wind Speed
WSPD
kts
5-day plot - Wind Gust
GST
kts
5-day plot - Wave Height
WVHT
ft
5-day plot - Dominant Wave Period
DPD
sec
5-day plot - Average Wave Period
APD
sec
5-day plot - Mean Wave Direction
MWD
 
5-day plot - Atmospheric Pressure
PRES
in
5-day plot - Pressure Tendency
PTDY
in
5-day plot - Air Temperature
ATMP
°F
5-day plot - Water Temperature
WTMP
°F
5-day plot - Dew Point
DEWP
°F
5-day plot - Salinity
SAL
psu
5-day plot - Visibility
VIS
nmi
5-day plot - Tide (above MLLW)
TIDE
ft
2024-03-02 02:24 pm N 42.0 52.1----30.01- 18.3- 0.1---
2024-03-02 01:24 pm N 42.9 54.0----30.00- 17.6- -2.4---
2024-03-02 12:24 pm N 41.0 55.0----29.99- 17.4- -0.9---
2024-03-02 11:24 am N 42.0 55.0----29.99- 16.9- -0.8---
2024-03-02 10:24 am N 45.1 56.9----29.99- 16.7- -2.0---
2024-03-02 09:24 am N 42.0 60.0----29.98- 16.5- 0.7---
2024-03-02 08:24 am N 44.1 55.9----29.96- 16.0- 0.1---
2024-03-02 07:24 am N 46.0 55.9----29.95- 16.0- -1.5---
2024-03-02 06:24 am N 42.9 55.9----29.95- 16.2- -0.8---
2024-03-02 05:24 am N 41.0 52.1----29.93- 17.4- -0.4---
2024-03-02 04:24 am N 41.0 54.0----29.91- 17.4- 2.5---
2024-03-02 03:24 am N 40.0 55.9----29.91- 18.1- 2.3---
2024-03-02 02:24 am N 41.0 54.0----29.90- 18.3- 2.7---
2024-03-02 01:24 am N 46.0 55.0----29.90- 18.7-----
2024-03-02 12:24 am N 41.0 51.1----29.89- 18.7- 18.7---
2024-03-01 11:24 pm N 41.0 54.0----29.88- 19.2- 19.2---
2024-03-01 10:24 pm N 42.0 55.9----29.86- 19.6-----
2024-03-01 09:24 pm N 36.9 52.1----29.84- 20.7- 20.7---
2024-03-01 08:24 pm N 38.1 52.1----29.84- 20.7- 20.7---
2024-03-01 07:24 pm N 38.1 52.1----29.83- 20.7- 20.7---
2024-03-01 06:24 pm N 42.9 51.1----29.81- 21.2- 21.2---
2024-03-01 05:24 pm N 38.1 52.1----29.80- 21.7-----
2024-03-01 04:24 pm N 35.0 48.0----29.78- 22.3- 22.3---